Temp
19 19 19 18 22 24 23 24 24 23 23 22 21 22 21 18 20 21 17 17 17 17 16 16 15 15 16 16 16 16 16 16 16 16 17 17 17 17 17 17 17 18 17 17 17 17 18 18 18
19 19 19 18 23 25 23 24 23 24 22 21 20 20 20 19 16 16 16 17 17 17 16 16 16 16 15 15 16 16 16 16 16 16 17 17 17 17 17 17 18 18 17 18 18 18 17 18 17
19 19 19 21 22 24 24 23 23 22 22 22 20 19 19 18 15 16 17 17 17 17 17 16 16 16 15 15 15 16 16 16 16 17 17 17 17 18 18 18 18 18 18 18 18 18 18 17 18
19 19 19 22 23 23 24 23 23 22 22 20 20 20 17 16 16 17 17 18 18 17 16 17 16 16 16 16 16 16 16 16 16 16 17 17 18 17 18 18 18 18 18 18 17 17 18 18 18
19 19 22 22 22 24 24 23 23 23 21 21 20 19 17 17 18 18 18 18 18 18 17 17 16 16 16 15 15 16 16 16 16 17 17 17 17 17 18 19 18 18 18 18 18 18 18 18 18
20 19 23 23 23 23 23 22 22 21 20 20 20 19 16 17 18 18 18 18 18 18 18 17 17 17 16 16 16 16 16 16 17 17 17 17 17 18 19 19 19 18 18 18 18 18 18 18 18
20 20 22 23 23 23 23 22 23 22 21 20 19 20 16 16 17 18 18 18 18 18 18 18 17 17 17 17 16 16 17 18 18 17 17 18 18 18 19 19 19 18 18 18 18 18 18 19 19
19 20 23 23 23 23 23 22 21 22 20 19 20 19 17 16 17 18 18 18 18 18 18 18 18 17 18 18 17 17 17 17 18 18 18 17 17 18 18 19 19 19 18 18 18 19 19 19 19
19 22 22 22 24 22 22 22 21 20 20 20 19 19 18 17 17 17 18 18 18 18 18 18 18 18 18 18 17 18 18 18 18 18 18 18 18 18 18 18 18 19 19 19 19 19 19 19 19
21 19 20 20 21 23 23 23 22 22 21 19 18 18 17 17 17 16 16 18 18 18 18 17 18 18 18 18 18 18 18 18 18 18 18 18 18 18 18 19 19 19 19 19 19 19 20 20 19
20 19 19 20 20 20 23 23 22 22 22 20 19 18 16 16 16 16 17 19 19 18 18 18 18 18 18 18 18 18 18 18 18 18 18 18 18 19 19 19 19 19 19 20 20 20 20 20 20
20 19 19 18 19 21 22 22 22 22 22 21 19 18 17 16 17 17 17 19 19 18 18 18 18 17 18 19 19 18 18 18 18 18 18 19 19 19 19 20 20 20 20 20 20 21 21 21 20
21 19 20 19 20 20 20 22 22 21 20 19 18 17 17 17 17 17 18 19 19 19 18 18 18 18 18 18 19 18 18 18 18 19 19 19 19 19 20 20 20 20 20 20 20 21 21 21 21
21 21 20 20 19 19 22 21 22 20 19 19 18 18 18 18 17 17 18 19 19 19 19 19 18 18 18 18 18 18 18 18 19 19 19 19 19 19 19 20 20 20 20 20 20 21 21 21 21
21 21 21 20 19 18 19 19 20 20 20 19 19 19 18 18 17 18 19 19 19 19 19 19 18 18 18 18 18 18 18 18 18 19 19 19 19 19 19 20 20 20 20 21 21 21 21 22 21
21 21 20 19 18 17 19 19 20 20 20 20 19 19 18 18 18 17 19 19 19 18 19 19 18 18 18 18 18 18 19 18 19 19 19 19 19 19 19 20 20 20 21 21 21 21 21 21 22
21 21 20 17 16 17 17 18 18 17 20 20 20 20 19 19 18 18 18 19 19 18 18 19 18 18 18 18 18 18 18 18 18 19 19 19 19 19 19 20 20 20 21 21 21 21 21 22 22
23 21 20 19 17 17 17 17 18 17 18 19 20 20 19 19 19 18 19 19 19 18 18 18 18 18 18 18 18 18 18 18 18 18 18 19 19 19 20 20 20 20 20 21 21 21 21 22 22
22 22 21 19 18 18 17 17 17 17 19 19 20 20 20 20 19 19 19 19 19 19 18 18 18 18 18 18 18 18 18 18 18 18 19 19 19 19 20 20 20 20 20 21 21 21 22 22 22
23 23 21 17 17 18 18 17 17 16 16 19 19 20 20 20 19 19 20 19 19 19 19 18 18 18 18 18 18 19 18 18 18 18 18 19 19 19 19 20 20 20 20 21 21 21 21 22 22
24 24 21 21 18 18 17 18 17 17 16 17 19 20 21 20 20 19 19 20 19 19 19 18 18 18 18 18 18 19 19 18 18 18 18 19 19 19 19 20 19 20 20 20 21 21 21 21 22
24 23 23 20 20 19 18 20 18 17 16 18 19 19 21 20 20 20 19 20 20 20 19 19 18 18 18 18 19 19 19 19 18 18 18 18 18 19 19 19 19 20 20 20 20 20 21 21 21
22 22 22 22 21 20 19 19 19 17 17 18 19 20 20 21 21 20 20 20 20 20 20 19 19 18 18 18 18 19 19 19 19 19 19 19 18 18 19 19 19 19 19 20 20 20 20 20 20
22 23 22 21 20 21 20 21 20 18 19 20 20 19 20 21 21 21 20 20 21 20 20 19 19 18 18 18 18 19 19 19 19 19 19 19 19 18 18 18 19 19 19 19 20 20 20 20 20
24 25 22 22 21 22 19 20 23 22 22 22 22 20 20 20 20 20 19 22 21 20 20 19 19 19 18 18 18 19 18 19 19 19 19 19 19 19 19 19 19 18 18 19 19 20 20 20 20
24 25 24 22 22 23 20 20 23 22 22 22 22 20 19 20 19 20 20 22 22 21 20 20 19 19 19 19 19 19 18 19 19 19 19 19 19 19 19 19 18 18 18 19 19 19 19 19 20
23 23 23 23 21 22 23 22 22 23 22 22 22 22 20 20 19 20 20 21 22 22 21 20 20 19 19 19 19 19 18 18 19 19 19 19 19 19 19 19 19 19 19 18 19 19 19 19 19
24 24 23 22 21 22 23 22 22 21 21 22 22 22 20 20 19 19 19 20 22 22 22 21 20 20 20 19 19 19 18 18 18 19 19 19 19 19 19 19 19 19 19 19 18 19 19 19 19
23 23 23 24 24 22 23 22 20 18 19 21 21 22 20 19 20 20 20 21 21 22 22 21 21 20 20 19 19 19 19 19 18 18 19 19 19 19 19 19 19 19 19 19 19 18 18 18 18
23 24 24 25 22 22 22 21 18 17 18 19 20 20 20 20 19 20 19 21 21 21 22 21 21 20 20 19 19 19 19 19 19 19 18 18 19 19 19 19 19 19 19 19 19 18 18 18 18
Height
1518 1518 1517 1517 1520 1514 1525 1524 1519 1523 1528 1529 1532 1532 1534 1538 1537 1544 1546 1548 1550 1552 1554 1556 1558 1559 1560 1559 1560 1560 1561 1562 1562 1565 1567 1569 1570 1570 1571 1571 1571 1571 1573 1573 1574 1574 1575 1575 1575
1518 1518 1518 1517 1518 1522 1526 1520 1523 1524 1528 1531 1533 1534 1536 1541 1542 1544 1548 1550 1552 1554 1557 1558 1560 1561 1562 1561 1562 1562 1563 1564 1565 1569 1571 1571 1572 1571 1573 1572 1572 1573 1575 1575 1576 1577 1578 1578 1577
1518 1518 1519 1517 1522 1525 1525 1522 1525 1528 1530 1531 1534 1537 1539 1544 1545 1547 1548 1550 1554 1556 1559 1561 1563 1564 1565 1564 1565 1565 1567 1568 1568 1572 1573 1575 1574 1573 1574 1574 1575 1576 1576 1577 1579 1579 1580 1580 1579
1518 1519 1520 1520 1525 1523 1521 1523 1526 1529 1531 1532 1535 1539 1544 1547 1547 1548 1550 1552 1555 1559 1562 1564 1566 1568 1567 1567 1568 1568 1568 1570 1573 1573 1575 1576 1576 1576 1576 1576 1577 1578 1579 1580 1581 1582 1582 1581 1581
1518 1519 1519 1523 1526 1523 1523 1525 1527 1528 1532 1534 1536 1542 1546 1548 1548 1550 1553 1555 1558 1561 1564 1567 1569 1569 1570 1567 1570 1572 1572 1573 1573 1575 1576 1577 1577 1577 1577 1578 1578 1580 1581 1583 1583 1584 1584 1584 1583
1519 1519 1521 1527 1525 1525 1526 1528 1529 1530 1534 1536 1539 1540 1548 1549 1551 1553 1555 1558 1561 1563 1566 1569 1571 1573 1573 1574 1572 1572 1572 1574 1576 1578 1578 1578 1578 1578 1579 1579 1581 1582 1584 1585 1586 1586 1586 1586 1585
1517 1518 1522 1524 1526 1528 1527 1529 1530 1532 1535 1538 1540 1542 1550 1551 1553 1555 1557 1559 1562 1565 1567 1570 1572 1574 1574 1576 1575 1576 1578 1578 1578 1579 1579 1580 1580 1580 1580 1582 1583 1584 1586 1588 1589 1588 1588 1587 1587
1518 1518 1521 1524 1526 1530 1528 1530 1533 1534 1537 1539 1541 1545 1550 1551 1554 1557 1559 1561 1564 1566 1569 1570 1572 1574 1575 1576 1576 1578 1579 1580 1580 1581 1581 1582 1583 1582 1583 1584 1585 1587 1588 1589 1590 1590 1590 1590 1590
1518 1519 1526 1526 1525 1528 1529 1531 1535 1536 1538 1540 1542 1545 1549 1551 1555 1558 1560 1563 1565 1567 1570 1572 1574 1576 1576 1577 1578 1578 1579 1581 1582 1583 1584 1585 1586 1586 1587 1587 1589 1590 1591 1592 1592 1592 1592 1592 1592
1518 1523 1527 1528 1529 1529 1530 1532 1535 1538 1539 1542 1543 1547 1550 1553 1556 1559 1561 1564 1566 1568 1571 1573 1575 1577 1579 1580 1580 1581 1582 1584 1586 1586 1587 1588 1589 1589 1590 1591 1592 1593 1594 1594 1594 1594 1594 1595 1594
1519 1524 1528 1530 1530 1531 1531 1534 1536 1538 1539 1541 1541 1547 1552 1555 1557 1560 1563 1566 1568 1570 1572 1574 1576 1578 1579 1581 1582 1584 1585 1587 1588 1590 1591 1591 1591 1592 1593 1594 1595 1596 1596 1596 1596 1596 1596 1596 1596
1524 1527 1527 1531 1532 1532 1534 1536 1536 1539 1539 1542 1547 1548 1552 1556 1558 1561 1563 1566 1569 1571 1573 1575 1577 1579 1580 1582 1584 1586 1588 1590 1591 1593 1594 1594 1594 1595 1595 1596 1597 1598 1599 1598 1598 1598 1598 1599 1599
1524 1527 1529 1531 1533 1535 1536 1536 1537 1541 1541 1544 1548 1551 1554 1557 1560 1562 1565 1567 1570 1572 1575 1577 1579 1581 1583 1584 1586 1588 1590 1592 1594 1596 1596 1597 1597 1597 1597 1598 1599 1600 1600 1601 1600 1600 1600 1601 1601
1525 1527 1531 1534 1536 1538 1536 1537 1537 1543 1544 1547 1551 1553 1555 1557 1561 1562 1564 1567 1570 1573 1575 1577 1579 1582 1584 1586 1589 1590 1592 1594 1596 1597 1598 1598 1598 1598 1599 1600 1601 1602 1602 1602 1601 1602 1602 1602 1602
1527 1530 1531 1536 1538 1539 1539 1542 1538 1542 1546 1548 1552 1555 1556 1558 1561 1563 1566 1568 1571 1574 1576 1578 1581 1583 1585 1587 1589 1592 1594 1596 1597 1598 1599 1600 1600 1600 1601 1602 1603 1603 1604 1603 1603 1603 1603 1603 1604
1527 1529 1535 1540 1539 1542 1540 1546 1541 1542 1546 1548 1551 1555 1556 1559 1561 1564 1567 1570 1572 1574 1577 1579 1582 1584 1586 1589 1591 1593 1595 1597 1598 1599 1600 1601 1602 1602 1603 1603 1604 1604 1604 1604 1604 1605 1605 1605 1605
1526 1532 1537 1544 1544 1540 1544 1547 1545 1544 1547 1547 1550 1554 1557 1559 1561 1564 1566 1570 1573 1576 1578 1580 1583 1585 1587 1590 1592 1594 1596 1598 1598 1599 1600 1602 1603 1603 1604 1604 1605 1605 1605 1606 1606 1606 1606 1607 1606
1528 1534 1538 1541 1543 1538 1545 1546 1542 1543 1545 1545 1549 1553 1555 1558 1561 1563 1566 1569 1572 1576 1578 1581 1584 1586 1588 1590 1593 1595 1596 1598 1599 1600 1601 1603 1604 1605 1605 1606 1606 1607 1607 1607 1608 1608 1608 1608 1607
1523 1527 1533 1538 1538 1537 1542 1541 1540 1544 1546 1545 1549 1551 1552 1557 1561 1563 1565 1569 1571 1574 1577 1580 1583 1585 1587 1590 1593 1595 1597 1598 1599 1600 1602 1603 1605 1606 1606 1607 1607 1608 1608 1609 1609 1609 1609 1608 1607
1522 1527 1533 1541 1539 1537 1539 1539 1541 1544 1543 1545 1547 1549 1550 1556 1558 1561 1564 1567 1570 1574 1577 1579 1582 1585 1587 1591 1593 1596 1597 1598 1600 1601 1602 1603 1605 1606 1608 1608 1608 1609 1609 1609 1609 1609 1609 1608 1607
1522 1524 1531 1531 1538 1540 1541 1543 1539 1539 1543 1544 1543 1547 1549 1551 1554 1558 1561 1565 1568 1572 1575 1578 1581 1584 1587 1590 1593 1595 1598 1599 1600 1602 1603 1604 1605 1606 1607 1608 1609 1609 1610 1610 1609 1609 1609 1608 1607
1525 1522 1522 1532 1538 1545 1538 1544 1537 1538 1540 1543 1540 1542 1544 1547 1552 1556 1559 1562 1566 1570 1574 1577 1580 1583 1586 1589 1592 1594 1597 1599 1601 1602 1604 1604 1605 1606 1607 1608 1609 1609 1610 1609 1609 1609 1608 1608 1607
1523 1521 1523 1526 1535 1539 1539 1540 1530 1536 1535 1535 1535 1535 1539 1543 1547 1551 1555 1559 1564 1568 1572 1576 1579 1581 1584 1587 1590 1593 1596 1598 1600 1602 1603 1604 1605 1606 1606 1608 1609 1609 1610 1610 1609 1609 1608 1608 1607
1518 1519 1525 1529 1535 1542 1533 1534 1528 1528 1519 1522 1527 1531 1534 1539 1543 1548 1553 1558 1562 1566 1569 1573 1577 1579 1582 1585 1588 1591 1594 1596 1598 1600 1602 1603 1605 1606 1606 1606 1607 1608 1609 1609 1609 1609 1609 1609 1608
1514 1513 1535 1539 1542 1536 1535 1536 1513 1510 1508 1512 1516 1522 1528 1534 1540 1545 1548 1552 1557 1562 1566 1570 1574 1577 1580 1583 1586 1589 1591 1593 1596 1598 1600 1602 1603 1604 1605 1606 1606 1607 1607 1608 1608 1608 1609 1608 1608
1509 1509 1521 1541 1539 1531 1532 1535 1510 1505 1505 1508 1515 1519 1526 1531 1536 1540 1543 1549 1553 1558 1563 1568 1571 1575 1578 1581 1584 1586 1589 1591 1594 1596 1598 1600 1601 1602 1603 1604 1605 1605 1606 1606 1607 1607 1608 1608 1608
1513 1517 1514 1524 1532 1531 1520 1517 1509 1507 1508 1510 1514 1519 1521 1526 1531 1535 1539 1544 1550 1555 1560 1564 1568 1572 1575 1578 1582 1584 1586 1588 1591 1594 1595 1597 1598 1599 1600 1601 1602 1602 1603 1604 1604 1605 1605 1606 1606
1505 1509 1522 1523 1540 1540 1519 1522 1519 1515 1513 1512 1512 1514 1520 1524 1529 1533 1537 1542 1546 1552 1557 1562 1566 1569 1572 1575 1578 1581 1584 1586 1589 1591 1593 1594 1595 1596 1597 1598 1599 1600 1601 1602 1603 1603 1603 1603 1604
1510 1511 1512 1511 1516 1531 1528 1526 1520 1521 1518 1511 1509 1515 1518 1519 1521 1528 1533 1538 1544 1550 1553 1558 1562 1566 1569 1572 1575 1578 1580 1583 1586 1588 1589 1590 1592 1593 1594 1595 1596 1596 1597 1599 1599 1600 1601 1601 1601
1504 1504 1506 1507 1527 1523 1524 1531 1524 1521 1519 1515 1514 1516 1518 1520 1523 1527 1529 1534 1540 1545 1550 1554 1559 1563 1567 1570 1573 1575 1577 1579 1581 1583 1585 1586 1588 1589 1590 1591 1592 1593 1594 1594 1596 1597 1598 1599 1600
Wind_Speed
3 3 3 1 1 3 3 2 1 8 9 4 10 2 6 7 3 6 15 11 12 14 13 10 10 10 10 8 11 15 16 19 21 16 16 15 16 17 17 17 16 18 17 17 17 16 16 17 16
1 2 2 0 2 5 3 1 10 7 10 16 12 9 6 5 5 14 11 14 12 14 12 12 13 13 14 13 14 19 18 23 27 17 17 18 16 16 16 17 17 17 16 16 15 15 16 15 14
0 2 2 2 2 4 4 4 8 16 15 7 5 9 4 4 11 9 15 14 15 16 14 16 17 17 22 24 25 26 26 27 23 15 17 16 15 14 14 14 15 15 14 16 16 16 15 16 17
1 1 1 2 9 3 4 10 14 14 10 6 11 10 7 8 7 14 18 19 20 19 17 18 15 17 17 21 23 23 23 20 16 16 14 14 16 15 14 14 16 15 15 14 13 13 14 15 16
1 1 2 5 4 6 9 10 9 7 5 8 3 7 9 5 15 21 21 21 21 20 18 16 13 14 17 16 15 18 20 16 16 14 14 14 13 13 13 13 13 13 12 14 13 12 14 16 17
1 1 4 6 7 6 5 6 8 7 7 11 13 14 5 12 20 21 21 19 18 17 14 13 13 12 14 20 17 16 15 15 14 13 14 14 14 14 13 14 13 13 13 12 12 13 14 16 16
1 1 3 10 11 7 5 6 6 7 12 9 11 8 8 15 20 21 21 18 15 13 12 12 12 13 15 15 12 13 13 14 14 14 14 15 15 14 14 13 13 13 12 11 11 12 13 14 16
2 1 8 5 11 5 7 4 8 8 10 13 14 6 10 19 22 21 20 17 15 14 14 14 13 13 13 15 14 14 12 14 15 14 15 15 15 16 14 12 11 11 10 10 10 10 11 12 14
0 2 5 6 9 6 13 6 4 5 16 7 3 14 16 24 24 21 20 18 16 15 14 13 14 14 12 14 13 13 9 11 14 16 17 18 18 17 15 14 14 12 10 9 9 9 10 11 13
1 3 3 2 4 7 8 14 7 9 9 7 16 15 23 24 22 20 18 18 17 15 14 12 12 12 12 13 12 11 10 11 13 15 16 16 15 14 13 12 12 12 11 10 8 7 8 10 11
3 3 5 5 6 5 14 9 3 15 3 8 25 25 23 21 19 17 17 16 16 17 15 12 12 11 12 12 12 12 11 12 13 14 13 13 12 11 12 12 10 9 9 8 7 8 8 9 12
5 7 5 3 6 7 7 2 11 3 2 13 20 25 23 20 19 17 16 17 17 16 15 14 13 12 11 12 13 12 12 12 12 13 11 11 10 9 9 10 11 11 11 10 11 10 12 13 16
6 6 6 10 6 7 1 5 9 4 8 18 20 20 20 18 16 15 14 16 15 15 15 14 14 14 13 13 14 12 10 11 11 11 9 8 8 8 8 9 10 9 9 9 9 9 9 10 8
5 8 8 7 7 1 1 3 8 6 13 19 19 18 17 17 16 15 16 16 16 14 14 16 15 14 15 14 12 12 11 11 10 9 7 7 6 6 5 5 6 6 6 7 5 4 5 4 4
11 7 6 6 5 5 2 0 4 8 13 18 19 17 15 14 15 14 14 15 16 15 15 16 16 15 16 12 10 12 13 10 8 7 6 6 6 5 3 3 3 4 4 4 4 4 5 3 1
5 5 4 7 7 5 5 2 8 14 15 19 19 18 16 15 15 13 15 15 18 17 14 16 17 16 14 11 11 13 10 7 6 8 8 7 6 4 4 4 4 4 6 6 4 3 3 3 1
2 5 8 4 6 4 9 3 11 15 19 20 20 18 18 16 15 15 15 16 16 16 15 17 16 15 12 14 12 13 9 6 10 9 8 9 5 6 4 5 5 5 5 5 6 4 3 3 3
3 5 3 4 3 6 5 5 6 12 21 21 20 18 19 18 18 16 17 15 15 16 17 18 16 15 14 13 13 13 9 7 8 7 10 8 4 6 4 5 4 3 4 4 7 5 5 4 6
7 7 6 3 2 2 4 2 7 15 18 16 19 21 22 19 15 16 17 17 14 15 20 20 18 16 17 16 14 12 11 8 8 6 9 4 5 7 4 3 1 2 3 4 5 4 6 6 7
6 7 4 2 1 3 1 2 6 9 14 12 17 22 22 18 17 18 19 20 18 15 18 19 18 16 18 16 12 12 10 7 9 9 8 5 6 7 4 2 2 1 3 5 5 5 6 7 7
5 3 5 2 5 2 2 3 5 8 13 23 21 22 22 24 21 20 21 23 21 19 18 19 20 17 17 16 14 12 10 8 11 9 7 6 6 7 5 3 1 1 2 4 4 6 4 6 7
5 2 4 10 9 3 8 1 5 11 14 18 19 22 27 25 23 21 21 25 24 21 18 17 19 20 18 17 14 13 14 13 12 7 5 4 5 6 7 4 2 2 2 3 4 5 4 5 8
4 7 10 5 6 4 6 3 3 9 10 19 22 22 25 26 28 27 25 25 24 24 21 19 18 19 21 20 16 14 13 13 11 10 8 6 6 6 6 7 5 4 4 3 3 4 4 5 7
18 10 8 5 2 4 2 6 4 10 18 23 25 22 25 26 27 27 26 23 25 25 23 22 19 18 18 20 19 15 12 14 12 11 10 8 6 8 6 6 7 7 5 5 5 3 4 5 8
8 6 2 1 3 2 1 4 8 13 14 26 31 36 26 25 26 26 27 30 29 27 26 23 23 21 21 22 21 16 16 15 13 10 11 11 9 9 9 9 8 7 5 6 6 6 6 6 5
15 9 4 4 3 2 4 5 1 8 11 20 28 33 21 24 26 28 30 33 32 28 27 26 24 24 23 23 22 18 17 18 16 13 13 13 10 11 10 10 10 9 7 8 8 8 6 7 6
7 9 3 4 1 3 2 3 0 1 5 8 19 26 28 28 27 31 31 34 32 29 28 28 26 23 24 23 22 20 19 18 19 17 13 13 12 11 12 12 11 11 12 11 10 10 10 9 8
8 12 5 1 4 2 1 2 3 9 7 5 15 27 24 29 27 31 29 31 33 30 27 26 26 24 23 23 21 19 19 19 18 18 16 14 13 13 14 14 15 14 12 12 11 11 11 11 11
9 5 2 2 2 2 2 1 6 10 9 6 14 22 23 24 34 33 32 36 30 30 28 27 25 25 24 23 22 20 18 20 20 20 17 16 15 14 14 13 13 13 14 15 15 14 13 13 11
1 7 6 4 6 2 3 2 5 6 7 8 5 10 15 20 22 28 32 35 36 34 31 29 27 25 25 23 21 19 17 19 21 21 19 15 15 15 14 15 18 16 14 17 19 18 15 16 12
Wind_Direction
128 34 25 55 167 91 83 88 103 125 152 155 148 149 108 52 32 91 137 131 131 131 120 116 125 125 114 131 116 121 130 118 101 98 111 111 103 102 98 96 101 105 101 99 99 96 87 83 81
217 358 33 57 75 125 108 46 130 136 129 126 103 102 59 71 70 126 126 138 138 141 122 116 113 102 96 127 126 126 119 129 106 101 103 108 102 101 101 96 103 105 106 104 94 88 87 84 76
165 32 334 77 95 113 126 97 115 118 135 133 109 75 71 79 114 126 134 135 139 134 123 114 111 105 90 114 112 115 111 103 96 105 108 106 103 102 101 103 113 112 109 99 94 94 88 78 71
210 84 46 74 100 80 129 130 127 131 112 75 117 78 73 100 108 132 129 132 136 133 124 118 119 105 89 98 91 98 105 107 113 100 105 104 105 106 105 107 114 115 107 104 99 96 83 75 71
48 95 88 98 78 97 119 131 133 134 104 113 115 106 100 83 134 133 131 133 134 135 129 128 126 119 83 81 98 94 100 105 101 116 109 109 109 106 105 113 117 114 109 105 97 89 84 77 71
80 92 122 125 125 114 116 125 122 109 117 116 108 112 97 131 144 138 136 137 137 139 137 135 127 123 117 82 92 98 105 121 118 113 112 110 108 107 104 105 108 112 112 105 98 95 83 72 65
131 100 105 128 132 138 148 134 102 121 125 115 129 109 131 146 152 143 141 139 140 141 135 129 125 121 124 118 105 99 116 118 110 111 105 103 102 102 102 104 111 118 119 108 101 91 80 69 63
127 139 124 122 156 131 148 112 119 116 97 115 121 143 156 162 156 150 148 144 140 137 135 130 124 115 124 134 119 117 106 110 108 105 107 104 102 100 99 101 106 118 122 112 102 87 70 63 56
120 124 130 127 164 141 149 127 98 101 129 94 109 144 153 156 159 157 154 150 145 137 134 130 126 128 131 138 133 123 111 114 111 109 109 102 95 94 93 89 93 99 105 107 93 75 64 55 47
327 78 88 73 100 130 150 142 136 148 137 92 106 132 152 156 161 165 163 161 154 147 142 138 132 130 133 142 141 133 125 120 118 115 108 95 91 91 89 90 91 89 91 87 81 67 50 42 48
19 94 124 85 103 68 143 135 117 147 178 170 147 150 157 160 168 171 168 168 162 159 153 148 140 134 131 138 145 135 129 126 123 121 109 96 85 83 87 94 94 93 88 88 80 70 63 65 84
103 78 106 87 53 100 123 140 142 118 354 160 157 155 161 170 175 177 175 173 171 163 161 162 150 141 136 133 138 135 132 133 130 124 111 99 91 95 99 101 103 100 99 91 84 85 83 89 97
88 153 90 130 93 53 73 124 143 64 122 145 153 159 167 175 179 179 179 178 180 177 171 167 161 149 150 139 137 137 136 138 133 127 114 97 98 107 117 117 118 105 99 86 89 92 96 102 98
88 124 109 121 101 60 160 84 161 97 143 153 162 169 173 181 182 178 179 181 185 186 180 174 167 157 156 148 143 144 136 131 135 136 120 110 104 114 115 115 114 109 100 88 89 108 98 89 86
122 105 119 87 149 38 40 247 231 150 163 166 176 179 184 185 185 187 176 176 172 174 183 177 168 164 158 154 147 140 129 126 131 137 135 126 124 122 106 84 115 115 75 64 101 124 149 161 110
113 138 141 32 22 42 332 159 212 205 182 181 186 185 190 196 195 192 184 174 178 168 167 174 171 169 171 163 149 146 136 126 162 169 153 138 116 135 130 112 115 90 80 77 90 107 122 142 87
93 104 101 86 67 58 47 12 341 227 201 189 194 192 194 198 203 201 195 192 190 187 178 176 173 172 172 170 161 158 151 133 128 132 157 149 132 140 108 109 111 85 71 53 50 87 82 43 11
130 118 109 160 176 130 196 297 309 198 206 189 195 200 201 199 204 205 198 195 197 199 191 178 179 180 183 177 174 171 167 158 147 151 139 153 136 154 118 107 128 91 56 38 36 54 56 38 355
131 129 125 132 321 94 174 48 341 201 220 200 201 208 209 203 197 207 203 195 194 200 195 190 190 192 192 188 187 185 175 167 162 163 170 162 162 165 146 97 105 20 348 354 10 17 16 8 357
150 148 111 114 193 31 295 68 272 191 191 202 215 213 214 204 205 203 209 202 196 194 199 197 195 190 188 189 185 187 180 184 176 157 159 179 169 164 158 164 91 347 335 335 343 346 358 343 346
187 228 173 103 146 237 215 205 209 201 198 237 256 227 220 209 207 203 208 206 200 198 202 200 196 190 187 192 193 196 207 187 174 165 166 171 178 189 189 196 174 332 325 315 314 318 334 340 339
179 336 161 145 154 252 192 202 219 182 209 225 245 220 219 216 214 211 204 206 206 203 200 204 200 201 202 199 208 212 198 193 185 189 192 199 194 199 200 190 200 232 295 312 326 333 321 323 322
139 97 82 145 195 296 188 274 104 165 189 226 224 219 213 217 213 212 210 206 208 207 201 202 204 204 208 219 216 208 211 208 221 215 216 216 214 219 223 231 239 260 278 296 337 8 10 358 350
148 123 97 116 123 249 162 220 197 192 217 208 215 212 209 213 216 215 215 209 210 210 206 205 205 206 204 200 205 209 221 210 222 225 221 217 235 243 246 239 242 252 269 270 274 302 319 330 349
211 187 76 139 225 284 303 196 263 215 222 208 205 205 209 210 212 212 209 213 213 213 210 208 209 207 204 206 210 223 222 215 220 216 219 229 254 246 254 256 263 259 268 276 268 274 288 298 316
201 206 169 229 210 281 145 235 306 345 215 212 213 208 201 217 210 209 211 213 214 215 215 213 211 213 211 215 221 228 227 224 223 223 235 237 249 239 246 258 267 263 265 284 280 267 283 284 291
175 211 78 123 160 248 198 253 80 67 140 201 194 195 207 215 211 211 211 212 214 213 218 217 217 216 217 222 227 233 231 227 226 233 241 237 249 245 247 255 256 265 266 269 280 266 267 276 272
218 146 170 157 187 211 223 280 341 343 326 232 199 203 213 222 219 213 212 212 214 213 215 219 220 218 219 220 227 233 235 230 228 234 246 250 242 250 256 259 255 257 261 257 270 270 266 273 269
148 172 125 143 218 114 265 88 338 334 321 267 212 202 207 213 221 217 219 220 225 217 216 218 218 220 221 223 227 231 235 231 235 243 245 244 242 247 250 256 244 255 256 256 262 271 266 264 270
82 172 193 211 176 85 310 166 343 343 13 42 117 190 205 215 216 221 222 222 219 224 221 221 223 224 225 224 226 232 234 235 238 243 245 241 238 243 254 251 243 253 265 253 259 264 263 262 266